Tracking 29892 objects as of 21-Nov-2024
HD Live streaming from Space Station
objects crossing your sky now

STARLINK-2627

Track STARLINK-2627 now!
10-day predictions
STARLINK-2627 is classified as:


NORAD ID: 48687
Int'l Code: 2021-044BB
Perigee: 552.0 km
Apogee: 556.6 km
Inclination: 53.1 °
Period: 95.6 minutes
Semi major axis: 6925 km
RCS: Unknown
Launch date: May 26, 2021
Source: United States (US)
Launch site: AIR FORCE EASTERN TEST RANGE (AFETR)
Your satellite tracking list
Your tracking list is empty




NASA's NSSDC Master Catalog

Two Line Element Set (TLE):
1 48687U 21044BB  24326.16497004  .00015485  00000-0  10557-2 0  9995
2 48687  53.0535  32.3542 0003335 311.6585  48.4118 15.06415807193947
Source of the keplerian elements: AFSPC